Regional Weather Roundup
Issued by NWS Newport/Morehead, NC

Current Version | Previous Version | Graphics & Text | Print | Product List | Glossary On
Versions: 1 2 3 4 5 6 7 8 9 10 11 12 13 14 15 16 17 18 19 20 21 22 23 24 25 26 27 28 29 30 31 32 33 34 35 36 37 38 39 40 41 42 43 44 45 46 47 48 49 50
000 ASUS42 KMHX 010210 RWRMHX WEATHER ROUNDUP FOR EASTERN NORTH CAROLINA NATIONAL WEATHER SERVICE NEWPORT/MOREHEAD CITY NC 1000 PM EDT FRI OCT 31 2014 NOTE: "FAIR" INDICATES FEW OR NO CLOUDS BELOW 12,000 FEET WITH NO SIGNIFICANT WEATHER AND/OR OBSTRUCTIONS TO VISIBILITY NCZ015>017-031-032-045>047-102-103-010300- NORTH COAST CITY SKY/WX TMP DP RH WIND PRES REMARKS EDENTON CLEAR 48 42 79 N6 29.80F ELIZABETH CITY CLOUDY 56 43 61 N9 29.79F KITTY HAWK CLOUDY 58 47 69 N12G17 29.75S MANTEO CLOUDY 57 47 70 N13G22 29.77S $$ NCZ045>047-081-094-103-104-010300- CENTRAL COAST CITY SKY/WX TMP DP RH WIND PRES REMARKS FRISCO CLOUDY 59 53 80 N10G20 29.75S SWANQUARTER N/A 54 N/A N/A N3 29.77S $$ NCZ095-097-098-100-101-010300- SOUTHERN COAST CITY SKY/WX TMP DP RH WIND PRES REMARKS BEAUFORT CLOUDY 55 46 71 N8 29.78S CEDAR ISLAND N/A 57 N/A N/A NW23 29.82S JACKSONVILLE CLEAR 52 44 74 N8 29.78F PINEY ISLAND PTCLDY 59 48 67 N13 29.78R WILMINGTON CLEAR 51 45 79 NE3 29.79F $$ NCZ011>013-027>030-043-044-078>080-089-090>093-098-010300- COASTAL PLAIN CITY SKY/WX TMP DP RH WIND PRES REMARKS AHOSKIE NOT AVBL CLINTON CLEAR 50 46 84 CALM 29.79F ELIZABETHTOWN CLEAR 50 45 83 CALM 29.79F GOLDSBORO PTCLDY 49 47 94 CALM 29.78F GREENVILLE CLEAR 48 43 81 NE5 29.82F HAVELOCK CLEAR 55 45 68 N9 29.80S KENANSVILLE CLEAR 45 43 94 CALM 29.81S KINSTON CLEAR 45 43 93 CALM 29.80F NEW BERN CLEAR 52 43 71 N6 29.81S RICHLANDS CLEAR 46 41 81 CALM 29.79F ROCKY MOUNT PTCLDY 48 43 82 NE5 29.80F WASHINGTON CLEAR 48 43 82 NE3 29.81S WHITEVILLE CLEAR 48 46 93 CALM 29.78F $$ AMZ130-135-150-152-154-156-158-170-250-252-270-ANZ085-086-088-633-658-670-010300- MARINE OBSERVATIONS STATION/POSITION TIME TEMP WIND PRES WAVE SWELL AIR SEA DIR/SP/G HT/PER HT/PER (UTC) (F) (DEG/KT/KT) (MB) (FT/S) (FT/S) CHESAPEAKE LIGHT 0100 56 360/ 18/ 20 1009.0 64 E VA BEACH 0200 60 66 350/ 21/ 25 1006.1 7/ 7 2/11 DUCK 0200 58 65 10/ 16/ 22 1007.0 2 E DUCK NOT AVBL 10 NE DUCK 0100 66 N/A 6/ 6 OREGON INLET 0200 58 64 350/ 13/ 20 1007.3 13E OREGON INLT 0200 68 N/A 7/ 7 HATTERAS CG 0200 60 64 10/ 19/ 22 1007.8 DIAMOND BUOY 0200 63 350/ 19/ 23 1006.4 5/ 5 2/ 8 17 S OCRACOKE NOT AVBL CAPE LOOKOUT 0200 57 350/ 12/ 14 1008.1 BEAUFORT LAB 0200 57 66 350/ 11/ 14 1007.9 30 SE NEW RIVER 0200 63 73 360/ 17/ 23 1007.1 4/ 4 2/ 8 5 SE WRIGHTSVLE 0100 59 71 30/ 16/ 19 N/A 225 S CAPE HAT 0122 74 78 280/ 8/ 10 1006.3 4/ 8 3/ 8 41 SE CHARLESTON 0200 66 76 340/ 6/ 8 1008.8 4/ 7 3/ 7 $$

USA.gov is the U.S. government's official web portal to all federal, state and local government web resources and services.